Location: Newark
(48.0000°N, 67.0000°E)
Time: 19:23:20
(UTC+00:00)

Vanguard 1 - Visible Passes

Search period start: 16 February 2020 00:00
Search period end: 26 February 2020 00:00
Orbit: 650 x 3833 km, 34.2° (Epoch: 15 February)

Date Brightness Start Highest point End Pass type
(mag) Time Alt. Az. Time Alt. Az. Time Alt. Az.
16 Feb 14.8 02:03:15 10° SSE 02:05:48 10° SE 02:08:15 10° SE visible
20 Feb 14.6 00:58:19 10° SSE 01:06:37 13° SE 01:14:02 10° ESE visible
21 Feb 14.4 01:14:20 10° S 01:27:18 19° SE 01:38:09 10° ESE visible
22 Feb 14.3 01:32:13 10° S 01:48:02 24° SE 02:00:40 10° E visible
23 Feb 14.2 01:51:03 10° SSW 02:08:49 30° SSE 02:22:31 10° E visible
23 Feb 14.4 23:56:13 10° SSE 00:06:56 15° SE 00:16:49 10° ESE visible
25 Feb 14.3 00:12:57 10° S 00:27:27 21° SE 00:40:26 10° E visible
